Location: Sevilla
(37.3933°N, 5.9839°W)
Time: 06:07:19
(UTC+02:00)

Transit 2A Rocket - Pass Details

Date: 01 July 2024
Orbit: 582 x 910 km, 66.7° (Epoch: 15 July)

Event Time Altitude Azimuth Distance (km) Brightness Sun altitude
Rises 06:59:16 0° 315° (NW) 3,544 8.3 -2.2°
Reaches altitude 10° 07:02:32 10° 299° (WNW) 2,596 7.5 -1.6°
Maximum altitude 07:06:36 19° 256° (WSW) 2,004 6.6 -0.9°
Drops below altitude 10° 07:10:35 10° 213° (SSW) 2,526 7.1 -0.2°
Sets 07:13:43 0° 196° (SSW) 3,415 7.9 0.3°
